Probability
0 3 6 5 4 3 2 1 0 0 0 0 0 0 0 0 0 0 0 0 0 0 0 0 0 0 0 0 0 0 0 0 0 0 0 0 0 0 0 0 0 0 0
1 3 5 5 4 3 2 1 0 0 0 0 0 0 0 0 0 0 0 0 0 0 0 0 0 0 0 0 0 0 0 0 0 0 0 0 0 0 0 0 0 0 0
1 1 3 4 4 4 3 1 0 0 0 0 0 0 0 0 0 0 0 0 0 0 0 0 0 0 0 0 0 0 0 0 0 0 0 0 0 0 0 0 0 0 0
2 1 1 3 5 5 4 1 0 0 0 0 0 0 0 0 0 0 0 0 0 0 0 0 0 0 0 0 0 0 0 0 0 0 0 0 0 0 0 0 0 0 0
3 2 1 2 4 6 5 2 0 0 0 0 0 0 0 0 0 0 0 0 0 0 0 0 0 0 0 0 0 0 0 0 0 0 0 0 0 0 0 0 0 0 0
4 3 3 3 4 6 6 4 1 0 0 0 0 0 0 0 0 0 0 0 0 0 0 0 0 0 0 0 0 0 0 0 0 0 0 0 0 0 0 0 0 0 0
3 3 4 5 7 9 9 6 4 2 1 1 1 1 1 1 1 0 0 0 0 0 0 0 0 0 0 0 0 0 0 0 0 0 0 0 0 0 0 0 0 0 0
2 3 4 6 10 13 13 10 7 5 4 4 3 3 3 3 2 1 1 1 0 1 1 0 0 0 0 0 0 0 0 0 0 0 0 0 0 0 0 0 0 0 0
1 2 3 4 8 12 14 13 11 8 7 5 5 5 4 4 4 4 3 2 1 3 4 2 0 1 1 1 1 0 0 0 0 0 0 0 0 0 1 1 1 0 0
1 1 2 3 4 7 10 12 11 9 8 6 4 4 4 4 4 5 5 3 3 7 10 8 6 6 5 4 2 1 0 0 0 0 0 0 0 1 3 5 4 2 1
3 2 1 2 1 3 6 7 6 6 6 5 3 2 2 3 4 4 5 6 9 15 19 20 19 17 13 10 6 4 3 1 0 0 0 0 2 6 11 14 12 8 6
8 5 3 1 2 3 4 5 4 3 4 4 3 2 2 4 5 5 5 9 17 25 30 33 34 32 29 26 19 13 10 6 2 0 0 2 9 20 31 34 29 21 16
19 16 11 9 7 7 8 9 7 5 7 9 9 8 8 10 11 9 8 12 23 34 42 47 48 47 48 45 37 25 17 14 9 4 2 5 16 35 52 55 49 37 29
43 40 33 28 25 22 22 21 15 13 16 18 19 18 20 22 20 16 15 18 25 35 45 52 54 54 54 51 43 31 20 16 15 10 6 8 18 38 57 61 56 46 39
69 67 61 53 49 46 42 36 28 26 27 27 27 28 31 33 29 23 22 22 24 29 36 41 44 45 44 42 37 28 20 17 18 15 10 10 18 32 47 53 51 43 38
80 79 75 69 64 59 52 45 42 40 38 36 35 36 38 37 33 27 22 20 18 19 23 27 28 28 28 29 26 21 19 19 20 17 13 13 17 23 34 42 42 38 33
76 75 73 68 60 52 44 41 44 46 45 42 39 38 37 34 29 24 20 17 13 11 14 16 16 14 14 15 14 11 13 16 17 16 14 14 15 16 23 31 34 34 32
62 60 59 55 45 36 31 32 35 40 42 40 36 33 30 26 21 18 16 15 12 9 9 10 9 8 7 7 5 5 8 10 11 11 11 12 12 12 16 21 25 27 27
41 39 37 34 27 22 21 21 23 25 27 27 25 23 21 18 14 11 11 11 10 9 8 7 6 5 5 4 3 3 6 8 9 8 8 9 11 11 12 13 15 17 17
22 20 17 14 12 12 12 12 12 12 12 12 10 10 12 11 8 6 5 5 6 6 5 4 3 3 4 3 2 3 4 6 8 8 7 8 10 11 10 9 9 10 11
9 9 7 5 4 5 6 6 5 4 5 4 3 3 5 5 3 2 2 1 1 2 1 1 1 1 2 1 1 1 1 3 6 8 7 7 8 9 8 7 7 9 12
3 2 3 3 2 2 3 3 2 1 1 1 1 1 1 1 1 1 0 0 0 0 0 0 0 0 0 0 0 0 0 1 3 5 6 5 6 5 4 3 5 10 14
1 1 1 1 1 1 1 1 0 0 0 0 0 0 0 0 0 0 0 0 0 0 0 0 0 0 0 0 0 0 1 0 0 1 2 2 2 2 1 1 3 7 10
2 2 1 0 0 0 0 0 0 0 0 0 0 0 0 0 0 0 0 0 0 0 0 0 0 0 0 0 0 0 0 0 0 0 0 0 0 0 0 0 1 2 4
3 3 1 0 0 0 0 0 0 0 0 0 0 0 0 0 0 0 0 0 0 0 0 0 0 0 0 0 0 0 0 0 0 0 0 0 0 0 0 0 0 0 1
3 2 1 0 0 0 0 0 0 0 0 0 0 0 0 0 0 0 0 0 0 0 0 0 0 0 0 0 0 0 0 0 0 0 0 0 0 0 0 0 0 0 0
Wind_Speed
10 10 17 18 19 19 18 18 17 17 17 17 17 16 17 17 17 17 16 16 15 14 13 12 12 12 12 13 13 14 14 14 15 16 16 15 14 14 15 16 15 12 17
14 13 18 18 19 19 19 18 17 17 16 16 16 15 15 15 15 15 15 14 14 13 13 12 12 11 12 12 12 12 13 13 13 15 15 13 13 13 14 15 14 10 16
17 13 15 17 18 18 18 18 17 16 16 15 15 15 14 14 14 14 14 13 13 13 12 12 11 11 11 11 11 11 11 11 11 13 12 6 8 13 15 15 16 16 16
16 11 13 17 17 18 18 17 17 16 16 15 15 14 14 14 13 13 12 12 12 12 12 11 11 10 10 9 9 9 9 9 10 11 5 4 6 14 15 15 15 15 15
13 10 13 19 18 18 17 16 16 16 15 15 14 14 14 13 12 12 11 11 11 11 11 11 10 10 9 9 8 7 7 7 7 6 3 4 5 13 15 15 15 15 15
11 9 12 18 17 17 16 16 16 15 15 15 14 14 13 13 12 12 11 10 10 11 11 10 10 9 9 8 8 7 6 6 5 2 3 5 5 13 16 15 15 14 14
11 8 11 17 17 16 16 15 15 14 14 14 14 13 13 12 12 12 11 11 10 10 10 10 9 9 9 8 8 7 6 6 3 2 4 5 6 13 16 16 15 14 14
13 9 10 16 17 16 15 15 14 14 13 13 13 13 12 12 12 11 11 11 11 11 11 10 10 10 9 9 8 8 7 6 4 2 4 6 11 15 17 17 15 15 14
13 10 7 8 11 15 15 14 14 13 13 12 12 12 12 12 12 11 11 11 12 12 12 11 11 11 11 10 10 9 9 9 3 2 4 5 13 17 18 18 17 16 15
9 9 8 6 6 6 8 13 14 13 13 12 12 12 12 12 11 12 10 11 12 13 13 13 13 12 12 11 11 11 11 9 4 3 2 6 14 18 19 19 18 18 17
9 6 7 7 6 6 6 10 11 12 12 11 10 12 10 5 5 6 10 12 13 14 14 14 14 14 13 12 13 13 11 4 4 3 4 8 15 19 20 20 19 19 18
10 9 7 7 7 6 7 5 4 5 5 5 4 5 4 4 4 7 8 14 16 16 16 16 16 14 12 6 9 12 5 5 5 5 5 11 15 20 20 20 20 20 19
10 10 8 8 7 6 4 4 2 2 3 4 5 5 4 4 3 4 3 6 9 12 9 10 10 7 6 5 5 5 5 5 5 5 6 11 14 19 20 20 20 20 20
8 8 7 6 5 4 4 4 3 2 3 3 4 5 4 3 3 3 2 3 3 3 4 5 4 7 7 7 8 8 8 6 5 5 7 13 13 18 21 20 20 19 19
7 6 6 6 6 4 4 3 2 2 3 3 3 3 4 3 3 2 2 2 2 2 3 4 5 7 8 8 8 9 9 9 8 7 5 13 14 17 20 21 20 20 21
7 6 6 6 5 4 3 2 2 1 2 2 1 2 3 3 2 1 1 1 1 2 2 4 5 6 6 6 8 9 9 8 8 8 7 8 13 15 18 20 21 22 22
5 5 4 5 4 4 3 2 2 2 2 1 1 1 2 2 2 1 1 1 2 2 3 3 4 4 5 6 7 8 7 8 7 8 8 6 7 13 17 19 19 21 21
5 5 4 5 5 4 2 2 1 1 2 1 1 1 2 2 2 1 1 1 2 2 2 2 3 3 4 5 5 6 6 6 8 9 8 7 7 8 13 20 20 21 22
4 4 4 4 4 3 3 3 3 3 2 1 0 1 1 1 2 1 1 1 1 1 2 3 2 2 4 4 5 6 6 6 7 9 9 10 9 9 9 14 21 22 23
4 4 4 4 4 3 3 3 3 3 3 2 1 1 1 1 1 1 1 1 1 1 2 2 3 3 3 4 5 6 5 6 6 7 9 9 9 12 11 11 11 15 22
4 4 4 4 3 3 3 2 2 2 2 3 2 2 1 1 1 1 1 1 2 2 3 3 2 3 3 2 3 3 4 6 7 7 7 7 9 11 10 11 8 8 9
4 4 4 4 3 3 2 1 1 0 1 1 2 3 3 3 3 2 3 3 3 2 3 3 3 2 3 2 2 2 3 3 5 8 6 7 9 8 10 12 9 9 8
6 6 6 5 4 4 3 2 2 2 3 3 3 3 3 4 4 4 4 4 4 3 3 4 3 3 3 3 2 2 2 3 3 3 5 6 6 6 8 8 10 11 11
7 6 5 5 4 3 3 2 2 1 1 2 2 3 5 5 5 5 4 4 4 4 4 4 3 3 3 3 2 3 3 2 2 3 2 3 5 6 7 7 9 10 10
5 4 4 4 3 3 3 3 2 1 2 2 3 4 4 5 5 5 4 3 4 3 4 4 3 3 2 3 2 2 2 3 3 2 3 3 2 3 4 5 6 7 8
3 4 4 4 3 3 3 3 3 3 4 3 4 4 4 3 4 5 4 3 3 3 4 4 4 3 3 3 3 3 2 2 2 2 3 3 2 3 3 4 5 6 6
Wind_Direction
150 156 148 142 137 132 130 126 122 119 117 116 115 114 114 115 116 119 121 123 125 126 125 123 120 117 115 115 115 116 117 119 120 119 117 114 114 119 121 118 115 114 116
148 152 148 144 140 137 135 132 130 127 125 124 122 121 121 121 122 123 125 126 128 130 130 128 126 123 122 122 122 123 124 124 124 122 118 113 114 121 125 120 121 124 123
142 146 146 144 141 140 139 137 136 134 132 131 131 130 130 130 131 131 133 134 135 135 135 134 132 130 130 130 130 130 130 128 127 124 117 110 114 123 126 125 127 127 126
138 139 143 143 142 141 142 142 141 140 139 139 140 140 141 141 142 142 143 144 143 142 142 141 140 140 139 139 139 139 139 138 138 134 126 132 125 126 129 130 131 132 131
132 133 145 143 142 143 143 144 146 146 146 147 148 149 150 150 151 152 153 154 154 151 150 151 150 150 151 152 153 153 152 152 157 148 145 150 133 137 137 137 138 138 137
128 132 145 143 143 144 145 147 150 151 153 154 156 157 158 160 161 162 164 165 165 163 162 162 161 161 165 168 170 172 174 177 174 154 144 151 152 151 146 146 146 145 144
130 134 142 143 143 145 147 151 154 156 158 158 160 163 166 168 169 171 174 176 177 175 174 173 174 176 180 185 190 193 198 204 193 176 165 167 173 162 156 154 153 153 152
136 136 142 147 147 148 150 153 156 158 161 163 165 169 173 175 176 180 183 185 186 186 186 185 187 189 194 200 207 213 218 224 216 191 185 180 183 172 165 162 161 161 161
140 140 142 149 151 154 155 157 159 162 164 168 171 175 179 182 185 189 193 196 197 197 197 198 199 200 204 209 217 225 232 234 229 217 213 186 189 180 174 170 169 169 169
140 147 147 147 148 153 160 165 167 169 172 176 179 183 187 192 195 200 202 206 207 208 207 209 210 210 212 216 222 229 238 245 235 223 222 202 197 188 182 178 176 176 176
146 154 153 154 157 159 165 177 175 178 183 185 189 195 196 200 204 210 215 215 218 219 217 217 217 217 218 222 226 232 238 236 234 229 219 218 206 198 190 186 184 183 182
159 167 169 168 172 174 182 174 178 187 188 189 192 201 196 196 213 222 227 229 229 229 227 225 224 223 223 223 230 233 231 228 235 238 229 224 212 206 198 192 190 189 188
161 167 169 171 176 180 182 158 179 193 190 201 205 207 208 208 219 233 232 242 238 235 232 231 230 225 221 215 218 223 226 227 232 239 238 229 216 209 204 198 196 195 193
143 149 154 157 147 157 148 155 169 186 187 197 214 213 205 207 214 219 221 235 228 224 220 223 224 227 227 224 220 224 227 227 228 231 240 241 225 210 205 201 200 201 201
104 112 124 119 123 125 123 136 132 147 159 177 196 204 192 189 207 207 220 232 233 213 214 225 226 229 230 228 227 227 228 227 226 226 235 240 229 213 207 205 204 208 209
87 89 100 102 107 106 109 121 124 118 121 129 149 186 174 170 181 191 218 223 242 233 226 223 228 232 232 228 232 233 232 229 226 225 227 233 227 221 213 210 209 213 214
85 82 92 95 81 85 77 70 83 92 102 99 119 141 140 144 152 164 202 239 238 231 234 236 234 232 238 238 238 239 237 231 227 228 228 225 225 225 220 213 211 215 216
84 77 73 84 69 59 52 44 57 59 70 93 124 134 136 145 148 152 181 244 258 252 246 247 238 234 240 241 242 243 239 230 231 228 225 224 223 227 224 217 213 217 219
94 92 81 77 72 60 49 43 43 39 27 11 40 178 182 160 147 150 198 251 276 280 268 269 265 247 250 250 250 244 236 230 229 230 224 222 221 223 221 219 218 220 221
107 98 88 75 68 63 47 41 34 26 11 2 339 265 216 193 176 166 201 253 262 277 281 276 276 266 255 254 264 261 245 237 230 228 225 222 220 223 221 218 218 225 226
117 110 108 100 82 69 52 44 35 4 349 350 346 336 315 293 271 227 237 252 247 245 257 268 271 277 270 256 265 276 264 244 237 233 226 222 221 222 219 215 212 215 223
157 155 148 140 130 116 111 115 136 212 306 325 353 354 346 327 304 277 249 246 243 242 256 258 253 267 268 240 231 267 285 282 247 233 222 222 225 220 220 216 212 211 213
187 183 172 170 158 145 131 97 46 30 11 2 349 333 325 313 298 285 270 253 242 226 236 245 237 240 265 267 223 225 245 259 285 256 227 226 224 218 219 213 211 211 210
204 188 174 169 158 152 132 116 115 115 273 268 272 289 305 308 303 296 284 266 247 232 229 239 231 225 238 267 267 240 235 251 272 303 287 238 228 221 218 219 214 211 207
197 172 164 154 156 162 154 152 153 198 231 259 282 301 305 307 307 307 303 284 265 248 238 236 237 233 228 238 244 253 255 253 239 254 290 302 286 242 222 217 207 206 203
122 130 142 150 174 186 182 186 193 217 241 268 290 297 300 301 305 307 305 300 283 268 255 244 234 234 238 242 243 235 229 241 238 233 258 279 281 277 250 226 208 203 195